Location: Hillern
(53.0557°N, 9.8577°E)
Time: 21:43:19
(UTC+00:00)

Cosmos 2322 Rocket - Pass Details

Date: 19 May 2025
Orbit: 832 x 850 km, 71.0° (Epoch: 15 June)

Event Time Altitude Azimuth Distance (km) Brightness Sun altitude
Rises 22:48:52 0° 327° (NNW) 3,419 6.5 -16.7°
Reaches altitude 10° 22:51:20 10° 327° (NNW) 2,477 5.6 -16.7°
Maximum altitude 22:57:01 81° 242° (WSW) 859 2.2 -16.8°
Enters shadow 23:00:19 26° 157° (SSE) 1,596 3.1 -16.9°
